Location: Clarks Summit,Pa.
(41.5000°N, 75.6000°W)
Time: 02:32:23
(UTC-05:00)

Envisat - Pass Details

Date: 08 December 2021
Orbit: 764 x 766 km, 98.2° (Epoch: 18 January)

Event Time Altitude Azimuth Distance (km) Brightness Sun altitude
Rises 17:39:58 0° 218° (SW) 3,220 7.3 -12.3°
Reaches altitude 10° 17:43:47 10° 247° (WSW) 2,301 7.0 -13.0°
Maximum altitude 17:45:49 12° 271° (W) 2,145 6.5 -13.3°
Drops below altitude 10° 17:47:52 10° 295° (WNW) 2,308 6.2 -13.7°
Sets 17:51:44 0° 325° (NW) 3,241 6.5 -14.4°
